Regional Weather Roundup
Issued by NWS Midland/Odessa, TX

Skip options and go directly to product.
Home | Oldest Version | Previous Version | Current Version | All | Text Only | Save Text | Print | Product List | Glossary On

Skip product version selection by date and time.   
074
ASUS44 KMAF 011010
RWRMAF
MIDLAND AREA WEATHER ROUNDUP
NATIONAL WEATHER SERVICE MIDLAND TX
500 AM CDT WED OCT 01 2014

...IN SOUTHWEST TEXAS AND SOUTHEAST NEW MEXICO...

CITY           SKY/WX    TMP DP  RH WIND       PRES   REMARKS
ALPINE         CLEAR     61  55  80 SW7       29.98R
ANDREWS        FAIR      67  63  86 S8        29.83S
ARTESIA        NOT AVBL
BIG SPRING     CLEAR     72  63  74 S10       29.82S
CARLSBAD       CLEAR     61  52  72 W6        29.81F
DRYDEN           N/A     70  66  87 N7        29.79S
FORT STOCKTON  CLEAR     67  62  84 S6        29.82S
GUAD PASS      CLEAR     60  43  53 SW15G21   29.95F
HOBBS          CLEAR     59  57  94 CALM      29.85S
MARFA          CLEAR     55  52  88 CALM      29.97S
MIDLAND AIRPK  NOT AVBL
MIDLAND INTL   CLEAR     69  62  78 S7        29.81F
ODESSA         CLEAR     68  62  81 S5        29.82S
PECOS          CLEAR     64  60  86 W6        29.79S
PRESIDIO       FAIR      72  60  65 N7        29.82S
SEMINOLE       CLEAR     61  59  95 CALM      29.84S
SNYDER         CLEAR     68  63  83 S6        29.81S
WINK           CLEAR     67  64  90 E5        29.79F
$$
...OTHER STATIONS IN TEXAS...

CITY           SKY/WX    TMP DP  RH WIND       PRES   REMARKS
ABILENE        CLEAR     74  61  63 S8        29.78S
AMARILLO       CLEAR     62  39  42 W12       29.78S
AUSTIN         CLOUDY    75  73  93 S3        29.81R
BROWNSVILLE    CLEAR     76  76 100 SE6       29.78S
CORPUS CHRISTI PTCLDY    76  75  97 S5        29.78S
DALLAS FTW     CLEAR     76  69  79 S9        29.79R
DEL RIO        CLEAR     72  68  87 E8        29.77F
EL PASO        CLEAR     66  37  34 S7        29.88F
HOUSTON INT    MOCLDY    75  73  94 CALM      29.80S
LUBBOCK        CLEAR     59  52  77 SW9       29.81R
SAN ANGELO     CLEAR     72  62  71 S9        29.79S
SAN ANTONIO    MOCLDY    76  72  87 S6        29.81F
WACO           CLOUDY    75  71  87 S14       29.81R
WICHITA FALLS  NOT AVBL
$$
...OTHER LOCATIONS IN NEW MEXICO...

CITY           SKY/WX    TMP DP  RH WIND       PRES   REMARKS
ALAMAGORDO     PTCLDY    54  39  58 SW3       29.89S
ALBUQUERQUE    CLEAR     56  35  45 CALM      29.97S
CANNON AFB     CLEAR     57  41  55 NW10      29.85S
CLOVIS           N/A     52  43  71 W7        29.87R
HOLLOMAN AFB   PTCLDY    58  41  53 S8        29.87S
ROSWELL        CLEAR     53  48  83 SE3       29.84S
RUIDOSO        CLEAR     50  30  46 W9        30.03F
SANTA FE       CLEAR     44  31  60 N8        29.98S WCI  39
TRUTH OR CONSE CLEAR     57  37  47 NW7       29.92S
TUCUMCARI      CLEAR     53  43  68 W9        29.84R
$$

USA.gov is the U.S. government's official web portal to all federal, state and local government web resources and services.